Simultaneous Nadir Overpasses (SNOs) Predictions

Prediction of SNOs between GOES-17 and NOAA-19 Satellite Orbit:

Table of predicted SNOs for the next 14.0 days since TLE Epoch: 7/20/2024
Index Date Time (GOES-17) GOES-17 Lat,Lon NOAA-19 Lat,Lon Distance(km) Time Diff (sec)
1 07/20/2024 16:30:56 0.00,-104.72 0.61,-107.41 307.02 80
2 07/21/2024 16:15:57 -0.00,-104.72 -0.05,-104.41 35.06 80
3 07/22/2024 16:03:38 -0.00,-104.73 -0.78,-101.43 377.08 80
4 07/24/2024 04:38:03 -0.00,-104.70 -1.03,-109.04 495.92 80
5 07/25/2024 04:25:45 0.00,-104.71 -0.32,-106.05 153.78 80
6 07/26/2024 04:10:46 0.01,-104.71 0.40,-103.07 188.44 80
7 07/28/2024 16:32:45 0.00,-104.76 0.66,-107.66 331.61 80
8 07/29/2024 16:17:46 0.00,-104.76 -0.03,-104.67 10.79 80
9 07/30/2024 16:05:26 -0.00,-104.76 -0.72,-101.67 353.09 80
10 08/02/2024 04:27:34 -0.01,-104.74 -0.37,-106.30 178.18 80
